Retour au catalogue

CZ-2D DEB

ActifPO
NORAD 44619·DEBRIS·🇨🇳 China

Lancé Jun 2, 2018 depuis Jiuquan Satellite Launch Center

Loading…

Prochains Passages (prochaines 24 heures)

TLE

FraisSource: Space-Track

Époque: Sep 14, 2026, 08:48 UTC

1 44619U 18048F   26257.36703915  .00003072  00000-0  22144-3 0  9999
2 44619  98.2825 111.2281 0010124 277.4964  82.5110 15.04971499445068

Suivez CZ-2D DEB en temps réel avec AllMySat

Download on the App Store